Weather History for Monticello, KY

Change the Weather History Date:

Thursday, January 3, 2013

  Actual Average Record
Temperature  
Mean Temperature 30 °F -  
Max Temperature 41 °F 45 °F 58 °F (1962)
Min Temperature 19 °F 28 °F 3 °F (1979)
Degree Days  
Heating Degree Days 35    
Moisture  
Dew Point 23 °F    
Average Humidity 94    
Maximum Humidity 100    
Minimum Humidity 55    
Precipitation  
Precipitation 0.00 in - - ()
Sea Level Pressure  
Sea Level Pressure 30.30 in    
Wind  
Wind Speed 0 mph (NW)    
Max Wind Speed 6 mph    
Max Gust Speed -    
Visibility 3 miles    
Events Fog    
Averages and records for this station are not official NWS values.
T = Trace of Precipitation, MM = Missing Value Source: NWS Daily Summary

Daily Weather History Graph

Daily Weather History Graph

Search for Another Location

Airport:

Trip Planner

Search our weather history database for the weather conditions in past years. The results will help you decide how hot, cold, wet, or windy it might be!

Date:

Astronomy

Jan. 03, 2013 Rise Set
Actual Time 6:52 AM CST 4:35 PM CST
Civil Twilight 6:23 AM CST 5:04 PM CST
Nautical Twilight 5:51 AM CST 5:36 PM CST
Astronomical Twilight 5:20 AM CST 6:08 PM CST
Moon 10:59 PM CST (1/3) 10:13 AM CST (1/3)
Length of Visible Light 10h 40m
Length of Day
9h 43m
Waning Gibbous, 65% of the Moon is Illuminated
Jan 3
Waning Gibbous
Jan 4
Last Quarter
Jan 11
New
Jan 18
First Quarter
Jan 26
Full

Hourly Weather History & Observations

Time (CST) Temp. Windchill Dew Point Humidity Pressure Visibility Wind Dir Wind Speed Gust Speed Precip Events Conditions
12:56 AM 23.0 °F - 22.1 °F 96% 30.27 in 3.0 mi Calm Calm - N/A   Clear
1:44 AM 21.2 °F - 21.2 °F 100% 30.21 in 2.5 mi Calm Calm - N/A   Clear
1:56 AM 21.0 °F - 21.0 °F 100% 30.22 in 4.0 mi Calm Calm - N/A   Clear
2:20 AM 21.2 °F - 21.2 °F 100% 30.23 in 2.5 mi Calm Calm - N/A   Clear
2:30 AM 21.2 °F - 21.2 °F 100% 30.23 in 3.0 mi Calm Calm - N/A   Clear
2:38 AM 19.4 °F - 19.4 °F 100% 30.23 in 4.0 mi Calm Calm - N/A   Scattered Clouds
2:56 AM 20.1 °F - 19.0 °F 96% 30.23 in 3.0 mi Calm Calm - N/A   Scattered Clouds
3:23 AM 21.2 °F - 19.4 °F 93% 30.23 in 4.0 mi Calm Calm - N/A   Mostly Cloudy
3:44 AM 21.2 °F - 21.2 °F 100% 30.24 in 6.0 mi Calm Calm - N/A   Scattered Clouds
3:56 AM 21.0 °F - 20.1 °F 96% 30.24 in 4.0 mi Calm Calm - N/A   Clear
4:35 AM 21.2 °F - 19.4 °F 93% 30.25 in 1.8 mi Calm Calm - N/A   Clear
4:42 AM 19.4 °F - 19.4 °F 100% 30.25 in 2.0 mi Calm Calm - N/A   Scattered Clouds
4:56 AM 21.0 °F - 21.0 °F 100% 30.25 in 0.5 mi Calm Calm - N/A Fog Light Freezing Fog
5:10 AM 21.2 °F - 19.4 °F 93% 30.26 in 1.0 mi Calm Calm - N/A   Mostly Cloudy
5:12 AM 21.2 °F - 19.4 °F 93% 30.26 in 2.0 mi Calm Calm - N/A   Overcast
5:21 AM 21.2 °F - 21.2 °F 100% 30.27 in 0.8 mi Calm Calm - N/A   Overcast
5:23 AM 21.2 °F - 21.2 °F 100% 30.26 in 0.2 mi Calm Calm - N/A Fog Light Freezing Fog
5:31 AM 21.2 °F - 21.2 °F 100% 30.26 in 0.2 mi Calm Calm - N/A Fog Light Freezing Fog
5:56 AM 22.1 °F - 22.1 °F 100% 30.31 in 0.2 mi Calm Calm - N/A Fog Light Freezing Fog
7:17 AM 21.2 °F - 21.2 °F 100% 30.29 in 0.2 mi Calm Calm - N/A Fog Light Freezing Fog
7:29 AM 23.0 °F - 23.0 °F 100% 30.29 in 0.8 mi Calm Calm - N/A   Mostly Cloudy
7:37 AM 21.2 °F - 21.2 °F 100% 30.29 in 1.0 mi Calm Calm - N/A   Mist
7:43 AM 23.0 °F - 23.0 °F 100% 30.29 in 0.5 mi Calm Calm - N/A Fog Light Freezing Fog
7:56 AM 24.1 °F - 24.1 °F 100% 30.35 in 0.5 mi Calm Calm - N/A Fog Light Freezing Fog
8:07 AM 24.8 °F - 24.8 °F 100% 30.30 in 0.8 mi Calm Calm - N/A   Overcast
8:17 AM 24.8 °F - 24.8 °F 100% 30.30 in 0.5 mi Calm Calm - N/A Fog Light Freezing Fog
8:24 AM 24.8 °F - 24.8 °F 100% 30.30 in 0.2 mi Calm Calm - N/A Fog Light Freezing Fog
8:40 AM 24.8 °F - 24.8 °F 100% 30.30 in 0.5 mi Calm Calm - N/A Fog Light Freezing Fog
8:56 AM 26.1 °F - 26.1 °F 100% 30.36 in 0.5 mi Calm Calm - N/A Fog Light Freezing Fog
9:28 AM 26.6 °F - 26.6 °F 100% 30.32 in 0.8 mi Calm Calm - N/A   Overcast
9:48 AM 28.4 °F - 28.4 °F 100% 30.32 in 1.0 mi Calm Calm - N/A   Overcast
9:56 AM 29.1 °F - 29.1 °F 100% 30.38 in 1.2 mi Calm Calm - N/A   Overcast
10:03 AM 28.4 °F - 28.4 °F 100% 30.32 in 1.5 mi North - - N/A   Mostly Cloudy
10:13 AM 28.4 °F - 28.4 °F 100% 30.32 in 2.0 mi Calm Calm - N/A   Scattered Clouds
10:56 AM 32.0 °F 28.7 °F 32.0 °F 100% 30.37 in 3.0 mi Variable 3.5 mph - N/A   Partly Cloudy
11:56 AM - - - N/A% - - North - - N/A   Unknown
12:56 PM - - - N/A% - - North - - N/A   Unknown
1:56 PM 41.0 °F - 26.1 °F 55% - - North - - N/A   Unknown
2:56 PM 39.9 °F - 25.2 °F 56% 30.34 in - Calm Calm - N/A   Unknown
3:56 PM 38.8 °F - 25.2 °F 58% 30.35 in - Calm Calm - N/A   Unknown
4:56 PM 32.0 °F - 25.2 °F 76% 30.37 in 10.0 mi Calm Calm - N/A   Clear
5:56 PM 29.1 °F - 22.1 °F 75% 30.39 in 10.0 mi Calm Calm - N/A   Clear
6:56 PM 28.0 °F 21.7 °F 21.0 °F 75% 30.40 in 10.0 mi NW 5.8 mph - N/A   Clear
7:56 PM 26.1 °F - 20.1 °F 78% 30.41 in 10.0 mi Calm Calm - N/A   Clear
8:56 PM 21.0 °F - 18.1 °F 89% 30.43 in 10.0 mi Calm Calm - N/A   Clear
9:56 PM 20.1 °F - 18.1 °F 92% - 8.0 mi North - - N/A   Unknown
10:56 PM - - - N/A% - - North - - N/A   Unknown
11:56 PM - - - N/A% - - North - - N/A   Unknown